Rotterdam, Netherlands

2:00 AM CEST on June 27, 2017 (GMT +0200)
Rotterdam

Weather History for EHRD - September, 2013

Change the Weather History Date:

Friday, September 6, 2013

  Actual Average Record
Temperature  
Mean Temperature 68 °F -  
Max Temperature 76 °F 62 °F 77 °F (1999)
Min Temperature 59 °F 50 °F 44 °F (1996)
Cooling Degree Days 2    
Growing Degree Days 18 (Base 50)    
Moisture  
Dew Point 60 °F    
Average Humidity 79    
Maximum Humidity 94    
Minimum Humidity 52    
Precipitation  
Precipitation 0.04 in - - ()
Sea Level Pressure  
Sea Level Pressure 29.78 in    
Wind  
Wind Speed 4 mph ()    
Max Wind Speed 14 mph    
Max Gust Speed -    
Visibility 5.9 miles    
Events Rain , Thunderstorm    
Averages and records for this station are not official NWS values.
T = Trace of Precipitation, MM = Missing Value Source: Averaged Metar Reports

Daily Weather History Graph

Daily Weather History Graph

Search for Another Location

Airport or City:

Trip Planner

Search our weather history database for the weather conditions in past years. The results will help you decide how hot, cold, wet, or windy it might be!

Date:

Astronomy

Sep. 06, 2013 Rise Set
Actual Time 7:02 AM CEST 8:17 PM CEST
Civil Twilight 6:27 AM CEST 8:52 PM CEST
Nautical Twilight 5:45 AM CEST 9:34 PM CEST
Astronomical Twilight 4:59 AM CEST 10:20 PM CEST
Moon 8:12 AM CEST (9/6) 8:16 PM CEST (9/6)
Length of Visible Light 14h 24m
Length of Day
13h 15m
New Moon, 1% of the Moon is Illuminated
Sep 6
New Moon
Sep 12
First Quarter
Sep 19
Full
Sep 27
Last Quarter
Oct 5
New

Hourly Weather History & Observations

Time (CEST) Temp. Dew Point Humidity Pressure Visibility Wind Dir Wind Speed Gust Speed Precip Events Conditions
12:25 AM 73.4 °F 60.8 °F 65% 29.77 in 6.2 mi SE 4.6 mph - N/A   Unknown
12:55 AM 71.6 °F 60.8 °F 69% 29.77 in 6.2 mi Variable 2.3 mph - N/A   Unknown
1:25 AM 69.8 °F 62.6 °F 78% 29.74 in 6.2 mi SSE 4.6 mph - N/A   Unknown
1:55 AM 68.0 °F 60.8 °F 78% 29.74 in 6.2 mi South 4.6 mph - N/A   Unknown
2:00 AM 68 °F 61 °F 72% 29.76 in 14 mi SSE 6.7 mph - -   Partly Cloudy
2:25 AM 66.2 °F 60.8 °F 83% 29.74 in 6.2 mi SSE 5.8 mph - N/A   Unknown
2:55 AM 66.2 °F 60.8 °F 83% 29.74 in 6.2 mi SSE 5.8 mph - N/A   Unknown
3:25 AM 68.0 °F 60.8 °F 78% 29.74 in 6.2 mi SSE 5.8 mph - N/A   Unknown
3:55 AM 68.0 °F 60.8 °F 78% 29.74 in 6.2 mi Variable 2.3 mph - N/A   Unknown
4:25 AM 66.2 °F 60.8 °F 83% 29.71 in 6.2 mi Variable 2.3 mph - N/A   Unknown
4:55 AM 64.4 °F 60.8 °F 88% 29.71 in 6.2 mi Variable 2.3 mph - N/A   Unknown
5:00 AM 63 °F 59 °F 82% 29.74 in 10 mi SSW 2.2 mph - -  
5:25 AM 66.2 °F 60.8 °F 83% 29.71 in 6.2 mi SW 2.3 mph - N/A   Unknown
5:55 AM 62.6 °F 60.8 °F 94% 29.71 in 6.2 mi Variable 2.3 mph - N/A   Unknown
6:25 AM 64.4 °F 60.8 °F 88% 29.71 in 5.0 mi WSW 4.6 mph - N/A   Unknown
6:55 AM 62.6 °F 60.8 °F 94% 29.74 in 3.7 mi South 2.3 mph - N/A   Unknown
7:25 AM 62.6 °F 60.8 °F 94% 29.74 in 3.7 mi Variable 2.3 mph - N/A   Unknown
7:55 AM 64.4 °F 62.6 °F 94% 29.74 in 3.1 mi SSE 3.5 mph - N/A   Mist
8:25 AM 68.0 °F 62.6 °F 83% 29.74 in 3.1 mi South 4.6 mph - N/A   Mist
8:55 AM 69.8 °F 62.6 °F 78% 29.74 in 3.7 mi SSW 5.8 mph - N/A   Unknown
9:25 AM 69.8 °F 62.6 °F 78% 29.74 in 5.0 mi SW 8.1 mph - N/A   Unknown
9:55 AM 69.8 °F 62.6 °F 78% 29.74 in 5.6 mi WSW 6.9 mph - N/A   Unknown
10:25 AM 71.6 °F 60.8 °F 69% 29.77 in 6.2 mi WSW 9.2 mph - N/A   Unknown
10:55 AM 71.6 °F 60.8 °F 69% 29.77 in 6.2 mi WSW 8.1 mph - N/A   Unknown
11:00 AM 72 °F 61 °F 59% 29.77 in 6 mi West 6.7 mph - -   Scattered Clouds
11:25 AM 71.6 °F 62.6 °F 73% 29.74 in 6.2 mi WSW 6.9 mph - N/A   Unknown
11:55 AM 71.6 °F 60.8 °F 69% 29.77 in 6.2 mi West 8.1 mph - N/A   Unknown
12:25 PM 73.4 °F 60.8 °F 65% 29.77 in 6.2 mi West 5.8 mph - N/A   Unknown
12:55 PM 73.4 °F 60.8 °F 65% 29.77 in 6.2 mi West 6.9 mph - N/A   Unknown
1:25 PM 75.2 °F 59.0 °F 57% 29.77 in 6.2 mi West 9.2 mph - N/A   Unknown
1:55 PM 75.2 °F 60.8 °F 61% 29.77 in 5.6 mi West 6.9 mph - N/A   Unknown
2:00 PM 74 °F 60 °F 52% 29.78 in 6 mi West 6.7 mph - -   Partly Cloudy
2:25 PM 75.2 °F 59.0 °F 57% 29.77 in 6.2 mi West 9.2 mph - N/A   Unknown
2:55 PM 71.6 °F 60.8 °F 69% 29.77 in 5.0 mi WNW 6.9 mph - N/A   Unknown
3:25 PM 71.6 °F 59.0 °F 64% 29.77 in 5.6 mi Variable 2.3 mph - N/A   Unknown
3:55 PM 64.4 °F 57.2 °F 77% 29.83 in 6.2 mi SW 13.8 mph - N/A Rain , Thunderstorm Thunderstorms and Rain
4:25 PM 64.4 °F 60.8 °F 88% 29.83 in 3.7 mi West 9.2 mph - N/A Rain Light Rain Showers
4:55 PM 66.2 °F 60.8 °F 83% 29.77 in 5.6 mi NW 5.8 mph - N/A   Mostly Cloudy
5:00 PM 64 °F 58 °F 77% 29.80 in 7 mi West 6.7 mph - - Rain Rain
5:25 PM 64.4 °F 59.0 °F 83% 29.80 in 6.2 mi Variable 2.3 mph - N/A   Unknown
5:55 PM 64.4 °F 60.8 °F 88% 29.80 in 5.6 mi East 5.8 mph - N/A Rain Rain Showers
6:25 PM 66.2 °F 60.8 °F 83% 29.80 in 6.2 mi Variable 1.2 mph - N/A   Partly Cloudy
6:55 PM 68.0 °F 60.8 °F 78% 29.80 in 6.2 mi WSW 3.5 mph - N/A   Unknown
7:25 PM 66.2 °F 60.8 °F 83% 29.80 in 6.2 mi West 3.5 mph - N/A   Unknown
7:55 PM 64.4 °F 59.0 °F 83% 29.83 in 6.2 mi West 2.3 mph - N/A   Unknown
8:00 PM 64 °F 59 °F 79% 29.84 in 9 mi West 2.2 mph - -   Partly Cloudy
8:25 PM 62.6 °F 59.0 °F 88% 29.83 in 6.2 mi West 3.5 mph - N/A   Unknown
8:55 PM 60.8 °F 57.2 °F 88% 29.86 in 5.6 mi WSW 3.5 mph - N/A   Unknown
9:25 PM 59.0 °F 57.2 °F 94% 29.86 in 5.6 mi Variable 1.2 mph - N/A   Unknown
9:55 PM 60.8 °F 59.0 °F 94% 29.86 in 4.3 mi SW 3.5 mph - N/A   Mostly Cloudy
10:25 PM 64.4 °F 60.8 °F 88% 29.86 in 3.1 mi WSW 3.5 mph - N/A   Overcast
10:55 PM 62.6 °F 60.8 °F 94% 29.89 in - SW 5.8 mph - N/A   Mostly Cloudy
11:00 PM 63 °F 61 °F 90% 29.89 in 4 mi SW 4.5 mph - -   Mist
11:25 PM 62.6 °F 60.8 °F 94% 29.89 in 4.3 mi WSW 4.6 mph - N/A   Overcast
11:55 PM 62.6 °F 60.8 °F 94% 29.89 in 5.6 mi WSW 5.8 mph - N/A   Overcast